Showing default

BRITE-PL 2, 40119

Orbit data source: Space-Track

BRITE-PL 2, 40119 is a payload satellite owned by CBK (PL) in SSO that was launched on Tue, 19 Aug 2014 UTC via a CHANG ZHENG 4B launch vehicle from the Taiyaun Space Center, China (TSC). Payload-class satellites include a variety of spacecraft equipped with specific instruments for various scientific and technological missions. These include communications satellites like Starlink; space stations such as the ISS; scientific satellites like the Hubble; Earth observation satellites from companies like Planet Labs, Umbra, and HawkEye 360; GPS; miniature CubeSats for education and research; and military/defense satellites.

Loading next visibility...
Identifier
40119, 2014-049B
Orbit
SSO
Country
Flag of PLPL / POL
Related business
Manufacturer
CBKPL/UTIAS
Mission
Operational Civil Astronomy
Bus & Motor
GNB, Unknown motor
Mass
6.8 kg wet, 6.8 kg dry
Launch date (UTC)
2014-08-19 (11 years ago)
Launch vehicle
CHANG ZHENG 4B
Launch site
Taiyaun Space Center, China (TSC)
Object type
Payload
Rocket body
Debris
Shape & HBR
Box, 0.1 m
Radar Cross Section
0.060 m², Medium (>0.1 m² and < 1m²)

Expand to show TLE details & history
Last TLE update: 22 hours ago

TLE from 22 hours ago
0 BRITE-PL 2
1 40119U 14049B   25261.23471727  .00002225  00000-0  21952-3 0  9995
2 40119  97.8952   6.7375 0013235 293.0992  66.8832 14.92984146600842
Epoch: 2025-09-18T05:37Z
TLE epoch observation values (Epoch: 2025-09-18T05:37:59.572Z)
Latitude
0.00003°
Longitude
-75.15995°
Altitude
588.066 km
Speed
7.568 km/s
True Right ascension
00h 26m 56s
True Declination
0° 00' 00"
Sunlit
Object was in full shadow at epoch
Visualization orbit readout
Latitude
Unknown
Longitude
Unknown
Altitude
Unknown
Speed
Unknown
Apparent Right ascension
Unknown
Apparent Declination
Unknown
Sunlit
N/A
Visualization observer readout
Local Sidereal Time
20:53:33
Azimuth
Unknown
Elevation
Unknown
Doppler factor
Unknown
Orbital elements
Apogee altitude
594.877 km
Perigee altitude
576.444 km
Semi-major axis
6,963.797 km
Eccentricity
0.00132
Inclination
97.8952°
RAAN
6.7375°
Arg. of periapsis
293.0992°
True anomaly
67.02277°
Mean anomaly
66.8832°
Eccentric anomaly
66.95298°
Mean motion
3.73486 °/min
Orbital period
96.39 mins
BSTAR
0.00021952
Loading maneuver chart data...
Computing Atmospheric mass density...
Loading historical data...
Loading historical data...
Loading historical data...
Loading historical data...
Loading historical data...
Loading historical data...
Loading historical data...
Other satellites on launch #49 in the year 2014 (2014-08-19 UTC)

Documentation

Showing up to 5 results
|